Time,TemperatureF,DewpointF,PressureIn,WindDirection,WindDirectionDegrees,WindSpeedMPH,WindSpeedGustMPH,Humidity,HourlyPrecipIn,Conditions,Clouds,dailyrainin,SoftwareType,DateUTC
2013-03-12 00:03:00,56.0,55.0,29.79,West,279,0.0,1.0,96,0.08,,,0.46,,2013-03-12 04:03:00,
2013-03-12 00:13:00,56.0,55.0,29.79,West,279,0.0,1.0,96,0.08,,,0.46,,2013-03-12 04:13:00,
2013-03-12 00:22:00,56.0,55.0,29.79,West,279,0.0,2.0,96,0.06,,,0.47,,2013-03-12 04:22:00,
2013-03-12 00:32:00,56.0,55.0,29.78,West,279,0.0,2.0,96,0.04,,,0.48,,2013-03-12 04:32:00,
2013-03-12 00:43:00,56.0,55.0,29.78,West,279,0.0,2.0,96,0.04,,,0.48,,2013-03-12 04:43:00,
2013-03-12 00:52:00,56.0,55.0,29.80,WSW,252,1.0,2.0,96,0.04,,,0.49,,2013-03-12 04:52:00,
2013-03-12 01:03:00,56.0,55.0,29.77,SE,124,2.0,5.0,96,0.09,,,0.55,,2013-03-12 05:03:00,
2013-03-12 01:12:00,56.0,55.0,29.77,SE,124,2.0,5.0,96,0.09,,,0.55,,2013-03-12 05:12:00,
2013-03-12 01:22:00,56.0,55.0,29.77,SE,124,2.0,5.0,96,0.09,,,0.55,,2013-03-12 05:22:00,
2013-03-12 01:32:00,56.0,55.0,29.77,South,176,2.0,5.0,96,0.08,,,0.56,,2013-03-12 05:32:00,
2013-03-12 01:42:00,56.0,55.0,29.77,South,176,2.0,5.0,96,0.08,,,0.56,,2013-03-12 05:42:00,
2013-03-12 01:52:00,56.0,55.0,29.76,South,180,3.0,7.0,96,0.07,,,0.56,,2013-03-12 05:52:00,
2013-03-12 02:02:00,56.0,55.0,29.75,SSE,159,2.0,6.0,96,0.02,,,0.56,,2013-03-12 06:02:00,
2013-03-12 02:12:00,56.0,55.0,29.75,SSE,159,2.0,6.0,96,0.02,,,0.56,,2013-03-12 06:12:00,
2013-03-12 02:22:00,56.0,55.0,29.74,SSE,165,2.0,7.0,96,0.02,,,0.56,,2013-03-12 06:22:00,
2013-03-12 02:32:00,56.0,55.0,29.74,South,172,4.0,11.0,96,0.02,,,0.57,,2013-03-12 06:32:00,
2013-03-12 02:42:00,56.0,55.0,29.74,South,172,4.0,11.0,96,0.02,,,0.57,,2013-03-12 06:42:00,
2013-03-12 02:52:00,56.0,55.0,29.74,South,171,3.0,9.0,97,0.03,,,0.59,,2013-03-12 06:52:00,
2013-03-12 03:02:00,57.0,56.0,29.74,South,188,5.0,10.0,97,0.03,,,0.60,,2013-03-12 07:02:00,
2013-03-12 03:12:00,57.0,56.0,29.74,South,188,5.0,10.0,97,0.03,,,0.60,,2013-03-12 07:12:00,
2013-03-12 03:22:00,57.0,56.0,29.73,South,179,6.0,16.0,97,0.03,,,0.60,,2013-03-12 07:22:00,
2013-03-12 03:32:00,57.0,56.0,29.73,WSW,237,7.0,13.0,97,0.03,,,0.61,,2013-03-12 07:32:00,
2013-03-12 03:42:00,57.0,56.0,29.73,WSW,237,7.0,13.0,97,0.03,,,0.61,,2013-03-12 07:42:00,
2013-03-12 03:52:00,57.0,56.0,29.72,SSW,198,8.0,14.0,96,0.02,,,0.61,,2013-03-12 07:52:00,
2013-03-12 04:02:00,58.0,57.0,29.71,SSW,200,8.0,22.0,96,0.01,,,0.61,,2013-03-12 08:02:00,
2013-03-12 04:13:00,58.0,57.0,29.71,SSW,200,8.0,22.0,96,0.01,,,0.61,,2013-03-12 08:13:00,
2013-03-12 04:22:00,58.0,57.0,29.71,SSW,194,7.0,12.0,96,0.01,,,0.61,,2013-03-12 08:22:00,
2013-03-12 04:33:00,58.0,57.0,29.71,SW,229,8.0,20.0,96,0.00,,,0.61,,2013-03-12 08:33:00,
2013-03-12 04:42:00,58.0,57.0,29.71,SW,229,8.0,20.0,96,0.00,,,0.61,,2013-03-12 08:42:00,
2013-03-12 04:52:00,58.0,57.0,29.71,SSW,210,9.0,11.0,96,0.00,,,0.61,,2013-03-12 08:52:00,
2013-03-12 05:03:00,58.0,57.0,29.71,SSW,196,4.0,10.0,96,0.00,,,0.61,,2013-03-12 09:03:00,
2013-03-12 05:12:00,58.0,57.0,29.71,SSW,196,4.0,10.0,96,0.00,,,0.61,,2013-03-12 09:12:00,
2013-03-12 05:22:00,58.0,57.0,29.71,SSW,213,5.0,11.0,96,0.00,,,0.61,,2013-03-12 09:22:00,
2013-03-12 05:33:00,58.0,57.0,29.71,NW,325,5.0,12.0,96,0.00,,,0.61,,2013-03-12 09:33:00,
2013-03-12 05:42:00,58.0,57.0,29.71,NW,325,5.0,12.0,96,0.00,,,0.61,,2013-03-12 09:42:00,
2013-03-12 05:52:00,58.0,57.0,29.71,SW,230,5.0,11.0,96,0.00,,,0.61,,2013-03-12 09:52:00,
2013-03-12 06:02:00,58.0,57.0,29.71,WSW,247,3.0,8.0,96,0.00,,,0.61,,2013-03-12 10:02:00,
2013-03-12 06:12:00,58.0,57.0,29.71,WSW,247,3.0,8.0,96,0.00,,,0.61,,2013-03-12 10:12:00,
2013-03-12 06:22:00,58.0,57.0,29.71,SSW,208,2.0,7.0,96,0.00,,,0.61,,2013-03-12 10:22:00,
2013-03-12 06:32:00,58.0,57.0,29.72,SW,229,3.0,6.0,96,0.00,,,0.61,,2013-03-12 10:32:00,
2013-03-12 06:42:00,58.0,57.0,29.72,SW,229,3.0,6.0,96,0.00,,,0.61,,2013-03-12 10:42:00,
2013-03-12 06:52:00,58.0,57.0,29.72,SSW,213,3.0,6.0,96,0.00,,,0.61,,2013-03-12 10:52:00,
2013-03-12 07:02:00,57.0,56.0,29.72,West,261,3.0,6.0,96,0.00,,,0.61,,2013-03-12 11:02:00,
2013-03-12 07:12:00,57.0,56.0,29.72,West,261,3.0,6.0,96,0.00,,,0.61,,2013-03-12 11:12:00,
2013-03-12 07:22:00,57.0,56.0,29.73,West,279,4.0,8.0,96,0.00,,,0.61,,2013-03-12 11:22:00,
2013-03-12 07:32:00,57.0,56.0,29.73,West,259,3.0,10.0,96,0.00,,,0.61,,2013-03-12 11:32:00,
2013-03-12 07:42:00,57.0,56.0,29.73,West,259,3.0,10.0,96,0.00,,,0.61,,2013-03-12 11:42:00,
2013-03-12 07:52:00,56.0,55.0,29.74,West,266,5.0,12.0,96,0.00,,,0.61,,2013-03-12 11:52:00,
2013-03-12 08:03:00,56.0,55.0,29.74,WSW,237,4.0,10.0,95,0.00,,,0.61,,2013-03-12 12:03:00,
2013-03-12 08:12:00,56.0,55.0,29.74,WSW,237,4.0,10.0,95,0.00,,,0.61,,2013-03-12 12:12:00,
2013-03-12 08:22:00,56.0,55.0,29.74,SW,226,1.0,7.0,96,0.00,,,0.61,,2013-03-12 12:22:00,
2013-03-12 08:32:00,55.0,54.0,29.75,WNW,298,6.0,12.0,95,0.00,,,0.61,,2013-03-12 12:32:00,
2013-03-12 08:42:00,55.0,54.0,29.75,WNW,298,6.0,12.0,95,0.00,,,0.61,,2013-03-12 12:42:00,
2013-03-12 08:52:00,54.0,53.0,29.76,SSW,213,5.0,14.0,95,0.00,,,0.61,,2013-03-12 12:52:00,
2013-03-12 09:02:00,54.0,53.0,29.77,West,263,8.0,15.0,95,0.00,,,0.61,,2013-03-12 13:02:00,
2013-03-12 09:12:00,54.0,53.0,29.77,West,263,8.0,15.0,95,0.00,,,0.61,,2013-03-12 13:12:00,
2013-03-12 09:22:00,53.0,52.0,29.79,WSW,240,8.0,13.0,95,0.00,,,0.61,,2013-03-12 13:22:00,
2013-03-12 09:32:00,52.0,51.0,29.80,WSW,237,4.0,13.0,95,0.00,,,0.61,,2013-03-12 13:32:00,
2013-03-12 09:42:00,52.0,51.0,29.80,WSW,237,4.0,13.0,95,0.00,,,0.61,,2013-03-12 13:42:00,
2013-03-12 09:52:00,51.0,50.0,29.80,WSW,246,4.0,10.0,95,0.00,,,0.61,,2013-03-12 13:52:00,
2013-03-12 10:02:00,51.0,49.0,29.80,SW,225,6.0,13.0,94,0.00,,,0.61,,2013-03-12 14:02:00,
2013-03-12 10:12:00,51.0,49.0,29.80,SW,225,6.0,13.0,94,0.00,,,0.61,,2013-03-12 14:12:00,
2013-03-12 10:22:00,52.0,50.0,29.81,SW,223,5.0,12.0,93,0.00,,,0.61,,2013-03-12 14:22:00,
2013-03-12 10:33:00,52.0,49.0,29.81,West,269,4.0,10.0,91,0.00,,,0.61,,2013-03-12 14:33:00,
2013-03-12 10:42:00,52.0,49.0,29.81,West,269,4.0,10.0,91,0.00,,,0.61,,2013-03-12 14:42:00,
2013-03-12 10:53:00,52.0,49.0,29.82,WNW,284,5.0,8.0,91,0.00,,,0.61,,2013-03-12 14:53:00,
2013-03-12 11:03:00,52.0,49.0,29.82,WNW,284,5.0,8.0,91,0.00,,,0.61,,2013-03-12 15:03:00,
2013-03-12 11:13:00,52.0,49.0,29.82,WNW,284,5.0,8.0,91,0.00,,,0.61,,2013-03-12 15:13:00,
2013-03-12 11:22:00,53.0,50.0,29.81,WSW,246,2.0,5.0,88,0.00,,,0.61,,2013-03-12 15:22:00,
2013-03-12 11:32:00,54.0,50.0,29.82,SW,236,1.0,4.0,85,0.00,,,0.61,,2013-03-12 15:32:00,
2013-03-12 11:42:00,54.0,50.0,29.82,SW,236,1.0,4.0,85,0.00,,,0.61,,2013-03-12 15:42:00,
2013-03-12 11:53:00,54.0,50.0,29.82,SW,236,1.0,4.0,85,0.00,,,0.61,,2013-03-12 15:53:00,
2013-03-12 12:03:00,55.0,51.0,29.83,West,259,3.0,7.0,86,0.00,,,0.61,,2013-03-12 16:03:00,
2013-03-12 12:12:00,55.0,51.0,29.83,West,259,3.0,7.0,86,0.00,,,0.61,,2013-03-12 16:12:00,
2013-03-12 12:23:00,55.0,51.0,29.82,WSW,257,3.0,6.0,87,0.00,,,0.61,,2013-03-12 16:23:00,
2013-03-12 12:33:00,55.0,51.0,29.83,WSW,256,2.0,6.0,86,0.00,,,0.61,,2013-03-12 16:33:00,
2013-03-12 12:43:00,55.0,51.0,29.83,WSW,256,2.0,6.0,86,0.00,,,0.61,,2013-03-12 16:43:00,
2013-03-12 12:52:00,55.0,51.0,29.83,WSW,253,2.0,6.0,85,0.00,,,0.61,,2013-03-12 16:52:00,
2013-03-12 13:03:00,56.0,51.0,29.83,West,275,1.0,7.0,84,0.00,,,0.61,,2013-03-12 17:03:00,
2013-03-12 13:13:00,56.0,51.0,29.83,West,275,1.0,7.0,84,0.00,,,0.61,,2013-03-12 17:13:00,
2013-03-12 13:23:00,56.0,51.0,29.83,WSW,246,3.0,6.0,83,0.00,,,0.61,,2013-03-12 17:23:00,
2013-03-12 13:34:00,57.0,52.0,29.83,WNW,287,1.0,7.0,83,0.00,,,0.61,,2013-03-12 17:34:00,
2013-03-12 13:43:00,57.0,52.0,29.83,WNW,287,1.0,7.0,83,0.00,,,0.61,,2013-03-12 17:43:00,
2013-03-12 13:53:00,59.0,52.0,29.83,West,260,3.0,9.0,77,0.00,,,0.61,,2013-03-12 17:53:00,
2013-03-12 14:03:00,60.0,51.0,29.83,WNW,298,2.0,7.0,73,0.00,,,0.61,,2013-03-12 18:03:00,
2013-03-12 14:13:00,62.0,52.0,29.83,West,275,5.0,8.0,70,0.00,,,0.61,,2013-03-12 18:13:00,
2013-03-12 14:23:00,62.0,52.0,29.83,West,275,5.0,8.0,70,0.00,,,0.61,,2013-03-12 18:23:00,
2013-03-12 14:33:00,63.0,51.0,29.82,WNW,297,4.0,9.0,66,0.00,,,0.61,,2013-03-12 18:33:00,
2013-03-12 14:42:00,63.0,51.0,29.82,WNW,297,4.0,9.0,66,0.00,,,0.61,,2013-03-12 18:42:00,
2013-03-12 14:53:00,64.0,51.0,29.82,WNW,284,3.0,9.0,63,0.00,,,0.61,,2013-03-12 18:53:00,
2013-03-12 15:04:00,65.0,49.0,29.81,WNW,302,5.0,12.0,57,0.00,,,0.61,,2013-03-12 19:04:00,
2013-03-12 15:13:00,65.0,49.0,29.81,WNW,302,5.0,12.0,57,0.00,,,0.61,,2013-03-12 19:13:00,
2013-03-12 15:23:00,66.0,49.0,29.81,WNW,286,5.0,11.0,54,0.00,,,0.61,,2013-03-12 19:23:00,
2013-03-12 15:33:00,68.0,49.0,29.80,WNW,292,1.0,12.0,51,0.00,,,0.61,,2013-03-12 19:33:00,
2013-03-12 15:43:00,68.0,49.0,29.80,WNW,292,1.0,12.0,51,0.00,,,0.61,,2013-03-12 19:43:00,
2013-03-12 15:53:00,69.0,49.0,29.80,WSW,248,5.0,13.0,49,0.00,,,0.61,,2013-03-12 19:53:00,
2013-03-12 16:02:00,68.0,48.0,29.80,WNW,298,1.0,8.0,48,0.00,,,0.61,,2013-03-12 20:02:00,
2013-03-12 16:13:00,68.0,48.0,29.80,WNW,298,1.0,8.0,48,0.00,,,0.61,,2013-03-12 20:13:00,
2013-03-12 16:23:00,69.0,48.0,29.79,NW,318,2.0,8.0,47,0.00,,,0.61,,2013-03-12 20:23:00,
2013-03-12 16:33:00,69.0,48.0,29.80,SSW,202,4.0,10.0,48,0.00,,,0.61,,2013-03-12 20:33:00,
2013-03-12 16:42:00,69.0,48.0,29.80,SSW,202,4.0,10.0,48,0.00,,,0.61,,2013-03-12 20:42:00,
2013-03-12 16:52:00,69.0,48.0,29.80,West,265,4.0,11.0,47,0.00,,,0.61,,2013-03-12 20:52:00,
2013-03-12 17:03:00,69.0,46.0,29.80,SW,229,2.0,10.0,44,0.00,,,0.61,,2013-03-12 21:03:00,
2013-03-12 17:13:00,69.0,46.0,29.80,SW,229,2.0,10.0,44,0.00,,,0.61,,2013-03-12 21:13:00,
2013-03-12 17:23:00,70.0,45.0,29.80,West,259,3.0,9.0,40,0.00,,,0.61,,2013-03-12 21:23:00,
2013-03-12 17:33:00,70.0,45.0,29.80,West,259,3.0,9.0,40,0.00,,,0.61,,2013-03-12 21:33:00,
2013-03-12 17:43:00,70.0,45.0,29.80,West,259,3.0,9.0,40,0.00,,,0.61,,2013-03-12 21:43:00,
2013-03-12 17:52:00,70.0,45.0,29.80,West,259,3.0,9.0,40,0.00,,,0.61,,2013-03-12 21:52:00,
2013-03-12 18:03:00,70.0,42.0,29.80,West,259,4.0,11.0,36,0.00,,,0.61,,2013-03-12 22:03:00,
2013-03-12 18:13:00,70.0,42.0,29.80,West,259,4.0,11.0,36,0.00,,,0.61,,2013-03-12 22:13:00,
2013-03-12 18:23:00,69.0,42.0,29.80,SSW,208,5.0,11.0,37,0.00,,,0.61,,2013-03-12 22:23:00,
2013-03-12 18:33:00,69.0,40.0,29.80,WSW,246,4.0,13.0,35,0.00,,,0.61,,2013-03-12 22:33:00,
2013-03-12 18:43:00,69.0,40.0,29.80,WSW,246,4.0,13.0,35,0.00,,,0.61,,2013-03-12 22:43:00,
2013-03-12 18:53:00,69.0,39.0,29.81,WSW,243,6.0,11.0,34,0.00,,,0.61,,2013-03-12 22:53:00,
2013-03-12 19:03:00,68.0,39.0,29.82,SSW,194,5.0,13.0,34,0.00,,,0.61,,2013-03-12 23:03:00,
2013-03-12 19:12:00,68.0,39.0,29.82,SSW,194,5.0,13.0,34,0.00,,,0.61,,2013-03-12 23:12:00,
2013-03-12 19:23:00,68.0,38.0,29.82,SW,215,3.0,12.0,33,0.00,,,0.61,,2013-03-12 23:23:00,
2013-03-12 19:34:00,68.0,39.0,29.83,SW,227,1.0,6.0,34,0.00,,,0.61,,2013-03-12 23:34:00,
2013-03-12 19:43:00,68.0,39.0,29.83,SW,227,1.0,6.0,34,0.00,,,0.61,,2013-03-12 23:43:00,
2013-03-12 19:52:00,67.0,38.0,29.84,SW,224,1.0,4.0,34,0.00,,,0.61,,2013-03-12 23:52:00,
2013-03-12 20:03:00,65.0,39.0,29.85,WNW,287,0.0,3.0,38,0.00,,,0.61,,2013-03-13 00:03:00,
2013-03-12 20:13:00,65.0,39.0,29.85,WNW,287,0.0,3.0,38,0.00,,,0.61,,2013-03-13 00:13:00,
2013-03-12 20:23:00,63.0,40.0,29.86,West,281,0.0,3.0,42,0.00,,,0.61,,2013-03-13 00:23:00,
2013-03-12 20:33:00,61.0,40.0,29.87,North,9,0.0,2.0,45,0.00,,,0.56,,2013-03-13 00:33:00,
2013-03-12 20:42:00,61.0,40.0,29.87,North,9,0.0,2.0,45,0.00,,,0.56,,2013-03-13 00:42:00,
2013-03-12 20:53:00,59.0,39.0,29.88,North,9,2.0,4.0,47,0.00,,,0.56,,2013-03-13 00:53:00,
2013-03-12 21:03:00,57.0,39.0,29.89,NNE,23,0.0,3.0,50,0.00,,,0.56,,2013-03-13 01:03:00,
2013-03-12 21:13:00,57.0,39.0,29.89,NNE,23,0.0,3.0,50,0.00,,,0.56,,2013-03-13 01:13:00,
2013-03-12 21:22:00,56.0,38.0,29.89,NNE,23,0.0,3.0,51,0.00,,,0.56,,2013-03-13 01:22:00,
2013-03-12 21:33:00,55.0,36.0,29.90,NNE,23,0.0,1.0,49,0.00,,,0.51,,2013-03-13 01:33:00,
2013-03-12 21:43:00,55.0,36.0,29.90,NNE,23,0.0,1.0,49,0.00,,,0.51,,2013-03-13 01:43:00,
2013-03-12 21:52:00,54.0,36.0,29.91,NNE,23,0.0,1.0,50,0.00,,,0.51,,2013-03-13 01:52:00,
2013-03-12 22:03:00,53.0,35.0,29.92,NNE,23,0.0,1.0,51,0.00,,,0.51,,2013-03-13 02:03:00,
2013-03-12 22:12:00,53.0,35.0,29.92,NNE,23,0.0,1.0,51,0.00,,,0.51,,2013-03-13 02:12:00,
2013-03-12 22:22:00,52.0,35.0,29.92,NNE,23,0.0,0.0,53,0.00,,,0.51,,2013-03-13 02:22:00,
2013-03-12 22:32:00,51.0,38.0,29.93,NNE,23,0.0,1.0,60,0.00,,,0.33,,2013-03-13 02:32:00,
2013-03-12 22:43:00,51.0,38.0,29.93,NNE,23,0.0,1.0,60,0.00,,,0.33,,2013-03-13 02:43:00,
2013-03-12 22:52:00,50.0,36.0,29.93,NNE,23,0.0,2.0,58,0.00,,,0.33,,2013-03-13 02:52:00,
2013-03-12 23:02:00,49.0,39.0,29.94,NNE,23,0.0,1.0,69,0.00,,,0.33,,2013-03-13 03:02:00,
2013-03-12 23:13:00,49.0,39.0,29.94,NNE,23,0.0,1.0,69,0.00,,,0.33,,2013-03-13 03:13:00,
2013-03-12 23:22:00,47.0,36.0,29.95,NNE,23,0.0,1.0,66,0.00,,,0.33,,2013-03-13 03:22:00,
2013-03-12 23:32:00,46.0,37.0,29.96,NNE,23,0.0,0.0,71,0.00,,,0.19,,2013-03-13 03:32:00,
2013-03-12 23:42:00,46.0,37.0,29.96,NNE,23,0.0,0.0,71,0.00,,,0.19,,2013-03-13 03:42:00,
2013-03-12 23:52:00,45.0,38.0,29.97,NNE,23,0.0,1.0,76,0.00,,,0.19,,2013-03-13 03:52:00,